Weather History for West Memphis, AR

Change the Weather History Date:

Monday, November 19, 2012

  Actual Average Record
Temperature  
Mean Temperature 50 °F -  
Max Temperature 64 °F 62 °F 77 °F (1979)
Min Temperature 37 °F 42 °F 25 °F (1980)
Degree Days  
Heating Degree Days 14    
Moisture  
Dew Point 40 °F    
Average Humidity 71    
Maximum Humidity 96    
Minimum Humidity 40    
Precipitation  
Precipitation 0.00 in - - ()
Sea Level Pressure  
Sea Level Pressure 30.24 in    
Wind  
Wind Speed 2 mph (South)    
Max Wind Speed 7 mph    
Max Gust Speed -    
Visibility 8 miles    
Events      
Averages and records for this station are not official NWS values.
T = Trace of Precipitation, MM = Missing Value Source: NWS Daily Summary

Daily Weather History Graph

Daily Weather History Graph

Search for Another Location

Airport:

Trip Planner

Search our weather history database for the weather conditions in past years. The results will help you decide how hot, cold, wet, or windy it might be!

Date:

Astronomy

Nov. 19, 2012 Rise Set
Actual Time 6:40 AM CST 4:52 PM CST
Civil Twilight 6:12 AM CST 5:19 PM CST
Nautical Twilight 5:42 AM CST 5:50 PM CST
Astronomical Twilight 5:11 AM CST 6:20 PM CST
Moon 11:47 AM CST (11/19) 11:13 PM CST (11/19)
Length of Visible Light 11h 06m
Length of Day
10h 12m
Waxing Crescent, 41% of the Moon is Illuminated
Nov 19
Waxing Crescent
Nov 20
First Quarter
Nov 28
Full
Dec 6
Last Quarter
Dec 13
New

Hourly Weather History & Observations

Time (CST) Temp. Windchill Dew Point Humidity Pressure Visibility Wind Dir Wind Speed Gust Speed Precip Events Conditions
12:53 AM 39.9 °F 37.8 °F 37.0 °F 89% 30.30 in 10.0 mi ENE 3.5 mph - N/A   Clear
1:53 AM 39.9 °F - 37.0 °F 89% 30.31 in 10.0 mi Calm Calm - N/A   Clear
2:53 AM 37.9 °F - 36.0 °F 93% 30.30 in 10.0 mi Calm Calm - N/A   Clear
3:53 AM 37.9 °F - 36.0 °F 93% 30.28 in 10.0 mi Calm Calm - N/A   Clear
4:53 AM 37.0 °F - 36.0 °F 96% 30.30 in 10.0 mi Calm Calm - N/A   Clear
5:53 AM 37.0 °F - 35.1 °F 93% 30.30 in 10.0 mi Calm Calm - N/A   Clear
6:53 AM 37.0 °F - 35.1 °F 93% 30.30 in 10.0 mi Calm Calm - N/A   Clear
7:53 AM 42.1 °F - 39.9 °F 92% 30.32 in 8.0 mi Calm Calm - N/A   Clear
8:53 AM 50.0 °F - 41.0 °F 71% 30.32 in 10.0 mi Calm Calm - N/A   Clear
9:53 AM 57.9 °F - 39.9 °F 51% 30.32 in 10.0 mi SSE 3.5 mph - N/A   Clear
10:53 AM 62.1 °F - 37.9 °F 41% 30.31 in 10.0 mi WSW 3.5 mph - N/A   Clear
11:53 AM 62.1 °F - 39.0 °F 43% 30.28 in 10.0 mi Variable 3.5 mph - N/A   Clear
12:53 PM 64.0 °F - 39.9 °F 41% 30.25 in 10.0 mi Variable 6.9 mph - N/A   Clear
1:53 PM 64.9 °F - 39.9 °F 40% 30.22 in 10.0 mi Variable 4.6 mph - N/A   Clear
2:53 PM 64.0 °F - 39.0 °F 40% 30.21 in 10.0 mi SW 4.6 mph - N/A   Clear
3:53 PM 63.0 °F - 39.9 °F 43% 30.19 in 10.0 mi Calm Calm - N/A   Clear
4:53 PM 55.0 °F - 39.9 °F 57% 30.20 in 10.0 mi Calm Calm - N/A   Clear
5:53 PM 54.0 °F - 39.0 °F 57% 30.22 in 10.0 mi Calm Calm - N/A   Scattered Clouds
6:11 PM 53.6 °F - 42.8 °F 67% 30.21 in 0.2 mi Calm Calm - N/A   Haze
6:27 PM 50.0 °F - 42.8 °F 76% 30.20 in 0.5 mi Calm Calm - N/A   Haze
6:29 PM 51.8 °F - 41.0 °F 67% 30.20 in 2.0 mi Calm Calm - N/A   Haze
6:36 PM 51.8 °F - 42.8 °F 71% 30.19 in 10.0 mi Calm Calm - N/A   Clear
6:53 PM 51.1 °F - 41.0 °F 68% 30.21 in 10.0 mi Calm Calm - N/A   Clear
7:47 PM 48.2 °F - 44.6 °F 87% 30.20 in 0.8 mi South 3.5 mph - N/A   Haze
7:49 PM 48.2 °F - 44.6 °F 87% 30.20 in 0.2 mi South 3.5 mph - N/A   Haze
7:53 PM 48.9 °F - 44.1 °F 83% 30.21 in 0.2 mi South 3.5 mph - N/A   Haze
8:06 PM 50.0 °F - 42.8 °F 76% 30.21 in 0.8 mi South 3.5 mph - N/A   Haze
8:08 PM 51.8 °F - 42.8 °F 71% 30.21 in 4.0 mi South 3.5 mph - N/A   Haze
8:53 PM 50.0 °F - 42.1 °F 74% 30.21 in 10.0 mi Calm Calm - N/A   Clear
9:53 PM 50.0 °F - 43.0 °F 77% 30.19 in 10.0 mi Calm Calm - N/A   Scattered Clouds
10:53 PM 50.0 °F - 43.0 °F 77% 30.19 in 10.0 mi Calm Calm - N/A   Clear
11:53 PM 50.0 °F - 44.1 °F 80% 30.18 in 10.0 mi South 4.6 mph - N/A   Mostly Cloudy